| time (UTC) | temp F | wind direction | speed MPH | gust MPH | rain 1hr in | rain 24hr in | rain mn in | humidity % | barometer mb |
| 20260507141707 | 65 | 135 | 2.0 | 0.0 | 0.00 | 0.00 | 0.00 | 51 | 1013.5 |
| 20260507140657 | 66 | 23 | 1.0 | 3.0 | 0.00 | 0.00 | 0.00 | 50 | 1013.5 |
| 20260507140125 | 65 | 158 | 2.0 | 3.0 | 0.00 | 0.00 | 0.00 | 51 | 1013.1 |
| 20260507134649 | 65 | 45 | 2.0 | 4.0 | 0.00 | 0.00 | 0.00 | 52 | 1013.1 |
| 20260507133639 | 65 | 45 | 2.0 | 6.0 | 0.00 | 0.00 | 0.00 | 51 | 1013.0 |
| 20260507132636 | 64 | 23 | 2.0 | 4.0 | 0.00 | 0.00 | 0.00 | 53 | 1013.0 |
| 20260507131622 | 64 | 23 | 3.0 | 5.0 | 0.00 | 0.00 | 0.00 | 53 | 1013.0 |
| 20260507131114 | 64 | 23 | 3.0 | 9.0 | 0.00 | 0.00 | 0.00 | 54 | 1013.0 |
| 20260507130134 | 64 | 338 | 3.0 | 5.0 | 0.00 | 0.00 | 0.00 | 56 | 1012.8 |
| 20260507124623 | 64 | 23 | 2.0 | 5.0 | 0.00 | 0.00 | 0.00 | 57 | 1012.8 |
| 20260507123622 | 64 | 23 | 2.0 | 3.0 | 0.00 | 0.00 | 0.00 | 57 | 1012.8 |
| 20260507122622 | 63 | 338 | 2.0 | 3.0 | 0.00 | 0.00 | 0.00 | 56 | 1012.8 |
| 20260507121625 | 64 | 113 | 1.0 | 4.0 | 0.00 | 0.00 | 0.00 | 57 | 1012.5 |
| 20260507120623 | 64 | 23 | 3.0 | 4.0 | 0.00 | 0.00 | 0.00 | 61 | 1012.5 |
| 20260507115621 | 62 | 45 | 3.0 | 6.0 | 0.00 | 0.00 | 0.00 | 59 | 1012.5 |
| 20260507114619 | 62 | 23 | 3.0 | 6.0 | 0.00 | 0.00 | 0.00 | 59 | 1012.5 |
| 20260507113619 | 62 | 45 | 2.0 | 6.0 | 0.00 | 0.00 | 0.00 | 59 | 1012.5 |
| 20260507112612 | 62 | 23 | 2.0 | 4.0 | 0.00 | 0.00 | 0.00 | 60 | 1012.5 |
| 20260507112051 | 63 | 45 | 2.0 | 4.0 | 0.00 | 0.00 | 0.00 | 62 | 1012.3 |
| 20260507110611 | 63 | 338 | 2.0 | 5.0 | 0.00 | 0.00 | 0.00 | 60 | 1012.3 |
| 20260507105612 | 63 | 45 | 3.0 | 8.0 | 0.00 | 0.00 | 0.00 | 63 | 1012.1 |
| 20260507103611 | 61 | 315 | 2.0 | 4.0 | 0.00 | 0.00 | 0.00 | 63 | 1012.0 |
| 20260507101606 | 59 | 68 | 2.0 | 4.0 | 0.00 | 0.00 | 0.00 | 63 | 1011.7 |
| 20260507100600 | 60 | 45 | 2.0 | 9.0 | 0.00 | 0.00 | 0.00 | 64 | 1011.7 |
| 20260507095555 | 61 | 0 | 1.0 | 3.0 | 0.00 | 0.00 | 0.00 | 65 | 1011.5 |
| 20260507094553 | 61 | 315 | 2.0 | 10.0 | 0.00 | 0.00 | 0.00 | 62 | 1011.5 |
| 20260507093545 | 61 | 23 | 3.0 | 7.0 | 0.00 | 0.00 | 0.00 | 66 | 1011.5 |
| 20260507092539 | 61 | 23 | 2.0 | 5.0 | 0.00 | 0.00 | 0.00 | 65 | 1011.5 |
| 20260507091536 | 60 | 270 | 2.0 | 3.0 | 0.00 | 0.00 | 0.00 | 68 | 1011.5 |
| 20260507090534 | 59 | 45 | 2.0 | 5.0 | 0.00 | 0.00 | 0.00 | 72 | 1011.5 |
| 20260507085531 | 59 | 338 | 2.0 | 6.0 | 0.00 | 0.00 | 0.00 | 73 | 1011.3 |
| 20260507084529 | 60 | 68 | 2.0 | 7.0 | 0.00 | 0.00 | 0.00 | 76 | 1011.3 |
| 20260507083528 | 56 | 68 | 1.0 | 4.0 | 0.00 | 0.00 | 0.00 | 77 | 1011.1 |
| 20260507082527 | 56 | 23 | 2.0 | 4.0 | 0.00 | 0.00 | 0.00 | 78 | 1011.1 |
| 20260507082010 | 57 | 23 | 2.0 | 4.0 | 0.00 | 0.00 | 0.00 | 79 | 1011.0 |
| 20260507080524 | 56 | 45 | 2.0 | 5.0 | 0.00 | 0.00 | 0.00 | 83 | 1011.0 |
| 20260507075526 | 55 | 113 | 1.0 | 2.0 | 0.00 | 0.00 | 0.00 | 90 | 1010.9 |
| 20260507074519 | 53 | 23 | 1.0 | 3.0 | 0.00 | 0.00 | 0.00 | 93 | 1010.9 |
| 20260507073513 | 49 | 315 | 0.0 | 1.0 | 0.00 | 0.00 | 0.00 | 93 | 1010.8 |
| 20260507072519 | 49 | 23 | 0.0 | 2.0 | 0.00 | 0.00 | 0.00 | 94 | 1010.8 |
| 20260507071513 | 47 | 113 | 0.0 | 2.0 | 0.00 | 0.00 | 0.00 | 94 | 1010.9 |
| 20260507070457 | 46 | 135 | 0.0 | 0.0 | 0.00 | 0.00 | 0.00 | 95 | 1010.9 |
| 20260507065504 | 46 | 23 | 0.0 | 2.0 | 0.00 | 0.00 | 0.00 | 95 | 1010.6 |
| 20260507064500 | 45 | 270 | 0.0 | 2.0 | 0.00 | 0.00 | 0.00 | 95 | 1010.6 |
| 20260507063457 | 44 | 248 | 0.0 | 0.0 | 0.00 | 0.00 | 0.00 | 95 | 1010.6 |
| 20260507062457 | 42 | 45 | 0.0 | 0.0 | 0.00 | 0.00 | 0.00 | 95 | 1010.6 |
| 20260507061556 | 42 | 248 | 0.0 | 1.0 | 0.00 | 0.00 | 0.00 | 95 | 1010.3 |
| 20260507060556 | 42 | 225 | 0.0 | 0.0 | 0.00 | 0.00 | 0.00 | 95 | 1010.3 |
| 20260507055600 | 41 | 270 | 0.0 | 2.0 | 0.00 | 0.00 | 0.00 | 95 | 1010.5 |
| 20260507054556 | 41 | 45 | 0.0 | 2.0 | 0.00 | 0.00 | 0.00 | 95 | 1010.5 |
| 20260507053551 | 40 | 45 | 0.0 | 0.0 | 0.00 | 0.00 | 0.00 | 95 | 1009.8 |
| 20260507052542 | 40 | 68 | 0.0 | 0.0 | 0.00 | 0.00 | 0.00 | 95 | 1009.8 |
| 20260507050542 | 39 | 225 | 0.0 | 0.0 | 0.00 | 0.00 | 0.00 | 94 | 1009.9 |
| 20260507045544 | 38 | 270 | 0.0 | 0.0 | 0.00 | 0.00 | 0.00 | 94 | 1009.5 |
| 20260507044543 | 39 | 270 | 0.0 | 0.0 | 0.00 | 0.00 | 0.00 | 94 | 1009.5 |
| 20260507043543 | 39 | 270 | 0.0 | 0.0 | 0.00 | 0.00 | 0.00 | 94 | 1009.3 |
| 20260507043029 | 38 | 270 | 0.0 | 0.0 | 0.00 | 0.00 | 0.00 | 94 | 1009.3 |
| 20260507041538 | 38 | 270 | 0.0 | 0.0 | 0.00 | 0.00 | 0.00 | 93 | 1009.3 |
| 20260507040531 | 38 | 270 | 0.0 | 0.0 | 0.00 | 0.00 | 0.00 | 93 | 1009.3 |
| 20260507035529 | 39 | 23 | 0.0 | 0.0 | 0.00 | 0.00 | 0.00 | 93 | 1009.5 |
| 20260507035008 | 39 | 23 | 0.0 | 0.0 | 0.00 | 0.00 | 0.00 | 93 | 1009.5 |
| 20260507033531 | 39 | 0 | 0.0 | 0.0 | 0.00 | 0.00 | 0.00 | 93 | 1009.3 |
| 20260507032529 | 39 | 270 | 0.0 | 0.0 | 0.00 | 0.00 | 0.00 | 93 | 1009.3 |
| 20260507032025 | 40 | 338 | 0.0 | 0.0 | 0.00 | 0.00 | 0.00 | 92 | 1009.1 |
| 20260507030528 | 40 | 338 | 0.0 | 0.0 | 0.00 | 0.00 | 0.00 | 92 | 1009.1 |
| 20260507025958 | 40 | 338 | 0.0 | 0.0 | 0.00 | 0.00 | 0.00 | 92 | 1009.1 |
| 20260507024518 | 41 | 338 | 0.0 | 0.0 | 0.00 | 0.00 | 0.00 | 92 | 1009.1 |
| 20260507024001 | 41 | 338 | 0.0 | 0.0 | 0.00 | 0.00 | 0.00 | 92 | 1009.3 |
| 20260507022516 | 42 | 338 | 0.0 | 0.0 | 0.00 | 0.00 | 0.00 | 91 | 1009.3 |
| 20260507022007 | 42 | 338 | 0.0 | 0.0 | 0.00 | 0.00 | 0.00 | 91 | 1009.3 |
| 20260507021001 | 43 | 23 | 0.0 | 0.0 | 0.00 | 0.00 | 0.00 | 91 | 1009.3 |
| 20260507015512 | 43 | 23 | 0.0 | 0.0 | 0.00 | 0.00 | 0.00 | 91 | 1009.1 |
| 20260507014509 | 43 | 68 | 0.0 | 0.0 | 0.00 | 0.00 | 0.00 | 91 | 1009.1 |
| 20260507013502 | 43 | 270 | 0.0 | 0.0 | 0.00 | 0.00 | 0.00 | 91 | 1009.1 |
| 20260507012502 | 44 | 23 | 0.0 | 0.0 | 0.00 | 0.00 | 0.00 | 91 | 1009.1 |
| 20260507011501 | 44 | 270 | 0.0 | 0.0 | 0.00 | 0.00 | 0.00 | 90 | 1009.2 |
| 20260507010507 | 44 | 180 | 0.0 | 0.0 | 0.00 | 0.00 | 0.00 | 90 | 1009.2 |
| 20260507005504 | 44 | 180 | 0.0 | 0.0 | 0.00 | 0.00 | 0.00 | 90 | 1008.8 |
| 20260507004502 | 44 | 23 | 0.0 | 0.0 | 0.00 | 0.00 | 0.00 | 89 | 1008.8 |
| 20260507003507 | 45 | 338 | 0.0 | 1.0 | 0.00 | 0.00 | 0.00 | 89 | 1009.0 |
| 20260507002501 | 45 | 248 | 0.0 | 0.0 | 0.00 | 0.00 | 0.00 | 89 | 1009.0 |
| 20260507001923 | 46 | 23 | 0.0 | 0.0 | 0.00 | 0.00 | 0.00 | 89 | 1009.0 |
| 20260507000455 | 46 | 338 | 0.0 | 0.0 | 0.00 | 0.00 | 0.00 | 89 | 1009.0 |
| 20260506235449 | 46 | 45 | 0.0 | 3.0 | 0.00 | 0.00 | 0.00 | 88 | 1009.3 |
| 20260506234446 | 46 | 135 | 0.0 | 3.0 | 0.00 | 0.00 | 0.00 | 88 | 1009.3 |
| 20260506233443 | 47 | 315 | 0.0 | 0.0 | 0.00 | 0.00 | 0.00 | 87 | 1009.2 |
| 20260506232231 | 47 | 135 | 0.0 | 1.0 | 0.00 | 0.00 | 0.00 | 88 | 1009.2 |
| 20260506231229 | 47 | 23 | 0.0 | 0.0 | 0.00 | 0.00 | 0.00 | 87 | 1009.3 |
| 20260506230216 | 47 | 23 | 0.0 | 2.0 | 0.00 | 0.00 | 0.00 | 87 | 1009.3 |
| 20260506225218 | 47 | 68 | 0.0 | 0.0 | 0.00 | 0.00 | 0.00 | 87 | 1009.3 |
| 20260506224658 | 47 | 23 | 1.0 | 3.0 | 0.00 | 0.00 | 0.00 | 87 | 1009.3 |
| 20260506223704 | 48 | 270 | 0.0 | 0.0 | 0.00 | 0.00 | 0.00 | 87 | 1009.1 |
| 20260506222217 | 48 | 45 | 0.0 | 2.0 | 0.00 | 0.00 | 0.00 | 88 | 1009.1 |
| 20260506221218 | 48 | 315 | 0.0 | 0.0 | 0.00 | 0.00 | 0.00 | 88 | 1009.0 |
| 20260506220203 | 48 | 315 | 0.0 | 1.0 | 0.00 | 0.00 | 0.00 | 88 | 1009.0 |
| 20260506215202 | 48 | 23 | 0.0 | 0.0 | 0.00 | 0.00 | 0.24 | 88 | 1008.6 |
| 20260506214200 | 48 | 270 | 0.0 | 0.0 | 0.00 | 0.00 | 0.24 | 88 | 1008.6 |
| 20260506213152 | 48 | 338 | 0.0 | 0.0 | 0.00 | 0.00 | 0.24 | 88 | 1008.6 |
| 20260506212150 | 48 | 338 | 0.0 | 0.0 | 0.00 | 0.00 | 0.24 | 88 | 1008.6 |
| 20260506211142 | 47 | 338 | 0.0 | 0.0 | 0.00 | 0.00 | 0.24 | 87 | 1008.4 |
| 20260506210139 | 48 | 0 | 0.0 | 0.0 | 0.00 | 0.00 | 0.24 | 87 | 1008.4 |
| 20260506205134 | 48 | 113 | 0.0 | 0.0 | 0.00 | 0.00 | 0.24 | 86 | 1008.5 |
| 20260506204134 | 48 | 293 | 0.0 | 0.0 | 0.00 | 0.00 | 0.24 | 86 | 1008.5 |
| 20260506203132 | 49 | 338 | 0.0 | 0.0 | 0.00 | 0.00 | 0.24 | 86 | 1008.5 |
| 20260506201132 | 49 | 68 | 0.0 | 0.0 | 0.00 | 0.00 | 0.24 | 86 | 1008.5 |
| 20260506200554 | 49 | 68 | 0.0 | 0.0 | 0.00 | 0.00 | 0.24 | 85 | 1008.5 |
| 20260506195120 | 49 | 338 | 0.0 | 0.0 | 0.00 | 0.00 | 0.24 | 85 | 1008.5 |
| 20260506194126 | 49 | 68 | 0.0 | 2.0 | 0.00 | 0.00 | 0.24 | 85 | 1008.5 |
| 20260506193122 | 49 | 23 | 0.0 | 2.0 | 0.00 | 0.00 | 0.24 | 85 | 1008.3 |
| 20260506192121 | 49 | 0 | 0.0 | 0.0 | 0.00 | 0.00 | 0.24 | 85 | 1008.3 |
| 20260506191116 | 49 | 23 | 0.0 | 0.0 | 0.00 | 0.00 | 0.24 | 85 | 1008.3 |
| 20260506190115 | 49 | 23 | 0.0 | 3.0 | 0.00 | 0.00 | 0.24 | 84 | 1008.3 |
| 20260506185107 | 50 | 45 | 0.0 | 3.0 | 0.00 | 0.00 | 0.24 | 84 | 1008.2 |
| 20260506184108 | 50 | 0 | 0.0 | 3.0 | 0.00 | 0.00 | 0.24 | 84 | 1008.2 |
| 20260506183108 | 50 | 45 | 1.0 | 4.0 | 0.00 | 0.00 | 0.24 | 84 | 1008.0 |
| 20260506182107 | 50 | 45 | 0.0 | 5.0 | 0.00 | 0.00 | 0.24 | 83 | 1008.0 |
| 20260506181113 | 50 | 23 | 0.0 | 3.0 | 0.00 | 0.00 | 0.24 | 83 | 1007.9 |
| 20260506180109 | 51 | 45 | 0.0 | 2.0 | 0.00 | 0.00 | 0.24 | 82 | 1007.9 |
| 20260506175058 | 51 | 158 | 1.0 | 3.0 | 0.00 | 0.00 | 0.24 | 82 | 1008.0 |
| 20260506174057 | 52 | 68 | 1.0 | 5.0 | 0.00 | 0.00 | 0.24 | 81 | 1008.0 |
| 20260506173052 | 52 | 68 | 0.0 | 2.0 | 0.00 | 0.00 | 0.24 | 82 | 1007.8 |
| 20260506172052 | 53 | 45 | 0.0 | 3.0 | 0.00 | 0.00 | 0.24 | 83 | 1007.8 |
| 20260506171056 | 52 | 23 | 2.0 | 0.0 | 0.00 | 0.00 | 0.24 | 83 | 1007.5 |
| 20260506170236 | 51 | 68 | 2.0 | 0.0 | 0.00 | 0.00 | 0.24 | 85 | 1007.5 |
| 20260506165336 | 52 | 45 | 3.0 | 4.0 | 0.00 | 0.00 | 0.24 | 84 | 1007.5 |
| 20260506164336 | 51 | 23 | 3.0 | 6.0 | 0.00 | 0.00 | 0.24 | 84 | 1007.5 |
| 20260506163337 | 51 | 68 | 2.0 | 5.0 | 0.00 | 0.00 | 0.24 | 85 | 1007.4 |
| 20260506162336 | 51 | 45 | 2.0 | 6.0 | 0.00 | 0.00 | 0.24 | 85 | 1007.4 |
| 20260506161337 | 51 | 45 | 3.0 | 8.0 | 0.00 | 0.00 | 0.24 | 86 | 1007.5 |
| 20260506160340 | 51 | 338 | 3.0 | 7.0 | 0.00 | 0.00 | 0.24 | 87 | 1007.5 |
| 20260506155341 | 50 | 23 | 2.0 | 5.0 | 0.00 | 0.00 | 0.24 | 88 | 1007.3 |
| 20260506154325 | 50 | 203 | 2.0 | 8.0 | 0.00 | 0.00 | 0.24 | 89 | 1007.3 |
| 20260506153322 | 50 | 45 | 1.0 | 3.0 | 0.00 | 0.00 | 0.24 | 89 | 1007.2 |
| 20260506152315 | 50 | 315 | 2.0 | 6.0 | 0.00 | 0.00 | 0.24 | 90 | 1007.2 |
| 20260506151308 | 50 | 23 | 3.0 | 8.0 | 0.00 | 0.00 | 0.24 | 90 | 1007.0 |
| 20260506150309 | 50 | 23 | 2.0 | 8.0 | 0.00 | 0.00 | 0.24 | 91 | 1007.0 |
| 20260506144303 | 50 | 23 | 1.0 | 4.0 | 0.00 | 0.00 | 0.24 | 91 | 1007.1 |
| 20260506143306 | 50 | 68 | 2.0 | 5.0 | 0.00 | 0.00 | 0.24 | 91 | 1007.0 |
| 20260506142301 | 50 | 23 | 2.0 | 4.0 | 0.00 | 0.00 | 0.24 | 91 | 1007.0 |